PY2VE-13 Weather Reports


time (UTC)temp
C
wind
direction
speed
KPH
gust
KPH
rain 1hr
cm
rain 24hr
cm
rain mn
cm
humidity
%
barometer
mb
20260509200405 30 0.0 0.0 0.00 0.00 0.00 36 1016.7
20260509194905 31 0.0 0.0 0.00 0.00 0.00 36 1016.5
20260509193405 31 0.0 0.0 0.00 0.00 0.00 35 1016.3
20260509191905 31 0.0 0.0 0.00 0.00 0.00 33 1016.0
20260509190405 42 0.0 0.0 0.00 0.00 0.00 19 1013.6
20260509184905 38 0.0 0.0 0.00 0.00 0.00 23 1014.4
20260509183405 33 0.0 0.0 0.00 0.00 0.00 33 1015.9
20260509181905 30 0.0 0.0 0.00 0.00 0.00 38 1016.9
20260509180405 30 0.0 0.0 0.00 0.00 0.00 38 1017.0
20260509174905 30 0.0 0.0 0.00 0.00 0.00 37 1016.9
20260509173405 30 0.0 0.0 0.00 0.00 0.00 38 1017.1
20260509171905 30 0.0 0.0 0.00 0.00 0.00 39 1017.3
20260509170405 30 0.0 0.0 0.00 0.00 0.00 39 1017.5
20260509164905 30 0.0 0.0 0.00 0.00 0.00 39 1017.6
20260509163405 30 0.0 0.0 0.00 0.00 0.00 39 1017.9
20260509161905 30 0.0 0.0 0.00 0.00 0.00 40 1018.2
20260509160405 30 0.0 0.0 0.00 0.00 0.00 39 1018.2
20260509154904 30 0.0 0.0 0.00 0.00 0.00 40 1018.4
20260509153404 29 0.0 0.0 0.00 0.00 0.00 41 1018.7
20260509151905 30 0.0 0.0 0.00 0.00 0.00 40 1018.8
20260509150404 29 0.0 0.0 0.00 0.00 0.00 40 1019.1
20260509144904 28 0.0 0.0 0.00 0.00 0.00 43 1019.6
20260509143404 28 0.0 0.0 0.00 0.00 0.00 45 1019.9
20260509141904 28 0.0 0.0 0.00 0.00 0.00 45 1020.0
20260509140404 28 0.0 0.0 0.00 0.00 0.00 45 1020.1
20260509134904 28 0.0 0.0 0.00 0.00 0.00 45 1020.4
20260509133404 27 0.0 0.0 0.00 0.00 0.00 46 1020.7
20260509131904 27 0.0 0.0 0.00 0.00 0.00 46 1020.5
20260509130404 27 0.0 0.0 0.00 0.00 0.00 47 1020.7
20260509124904 26 0.0 0.0 0.00 0.00 0.00 48 1020.9
20260509123404 27 0.0 0.0 0.00 0.00 0.00 46 1020.5
20260509121904 27 0.0 0.0 0.00 0.00 0.00 47 1020.5
20260509120404 26 0.0 0.0 0.00 0.00 0.00 51 1020.7
20260509114904 25 0.0 0.0 0.00 0.00 0.00 51 1020.6
20260509113404 25 0.0 0.0 0.00 0.00 0.00 53 1020.5
20260509111904 25 0.0 0.0 0.00 0.00 0.00 53 1020.5
20260509110404 25 0.0 0.0 0.00 0.00 0.00 54 1020.2
20260509104904 24 0.0 0.0 0.00 0.00 0.00 54 1020.0
20260509103404 23 0.0 0.0 0.00 0.00 0.00 57 1020.1
20260509101904 22 0.0 0.0 0.00 0.00 0.00 62 1020.2
20260509100359 22 0.0 0.0 0.00 0.00 0.00 60 1020.1
20260509094904 23 0.0 0.0 0.00 0.00 0.00 55 1019.3
20260509093404 25 0.0 0.0 0.00 0.00 0.00 49 1018.4
20260509091904 24 0.0 0.0 0.00 0.00 0.00 51 1018.2
20260509090404 24 0.0 0.0 0.00 0.00 0.00 52 1018.2
20260509084904 24 0.0 0.0 0.00 0.00 0.00 53 1018.1
20260509083404 23 0.0 0.0 0.00 0.00 0.00 54 1017.8
20260509081904 23 0.0 0.0 0.00 0.00 0.00 54 1017.6
20260509080404 23 0.0 0.0 0.00 0.00 0.00 53 1017.6
20260509074904 24 0.0 0.0 0.00 0.00 0.00 53 1017.6
20260509073404 23 0.0 0.0 0.00 0.00 0.00 53 1017.5
20260509071903 24 0.0 0.0 0.00 0.00 0.00 52 1017.5
20260509070403 25 0.0 0.0 0.00 0.00 0.00 51 1017.5
20260509064904 24 0.0 0.0 0.00 0.00 0.00 52 1017.8
20260509063403 24 0.0 0.0 0.00 0.00 0.00 52 1017.8
20260509061903 25 0.0 0.0 0.00 0.00 0.00 51 1017.6
20260509060403 25 0.0 0.0 0.00 0.00 0.00 50 1017.6
20260509054903 25 0.0 0.0 0.00 0.00 0.00 49 1017.4
20260509053403 26 0.0 0.0 0.00 0.00 0.00 48 1017.2
20260509051903 26 0.0 0.0 0.00 0.00 0.00 48 1017.3
20260509050403 25 0.0 0.0 0.00 0.00 0.00 48 1017.2
20260509044903 25 0.0 0.0 0.00 0.00 0.00 48 1017.4
20260509043403 25 0.0 0.0 0.00 0.00 0.00 48 1017.4
20260509041903 25 0.0 0.0 0.00 0.00 0.00 48 1017.6
20260509040403 26 0.0 0.0 0.00 0.00 0.00 46 1017.4
20260509034903 26 0.0 0.0 0.00 0.00 0.00 45 1017.4
20260509033403 26 0.0 0.0 0.00 0.00 0.00 45 1017.4
20260509031903 26 0.0 0.0 0.00 0.00 0.00 45 1017.2
20260509030403 26 0.0 0.0 0.00 0.00 0.00 44 1017.4
20260509024903 27 0.0 0.0 0.00 0.00 0.00 43 1017.1
20260509023403 26 0.0 0.0 0.00 0.00 0.00 44 1017.1
20260509021903 26 0.0 0.0 0.00 0.00 0.00 44 1017.4
20260509020403 27 0.0 0.0 0.00 0.00 0.00 43 1017.1
20260509014903 27 0.0 0.0 0.00 0.00 0.00 42 1016.8
20260509013403 27 0.0 0.0 0.00 0.00 0.00 42 1016.9
20260509011903 27 0.0 0.0 0.00 0.00 0.00 44 1016.9
20260509010403 27 0.0 0.0 0.00 0.00 0.00 42 1016.7
20260509004903 27 0.0 0.0 0.00 0.00 0.00 42 1016.4
20260509003403 27 0.0 0.0 0.00 0.00 0.00 42 1016.6
20260509001903 27 0.0 0.0 0.00 0.00 0.00 42 1016.6
20260509000403 27 0.0 0.0 0.00 0.00 0.00 41 1016.4
20260508234903 27 0.0 0.0 0.00 0.00 0.00 41 1016.7
20260508233403 28 0.0 0.0 0.00 0.00 0.00 40 1016.4
20260508231903 28 0.0 0.0 0.00 0.00 0.00 40 1016.2
20260508230403 28 0.0 0.0 0.00 0.00 0.00 39 1016.1
20260508224902 28 0.0 0.0 0.00 0.00 0.00 38 1016.1
20260508223402 29 0.0 0.0 0.00 0.00 0.00 37 1016.0
20260508221902 29 0.0 0.0 0.00 0.00 0.00 37 1015.8
20260508220402 29 0.0 0.0 0.00 0.00 0.00 37 1015.7
20260508214902 30 0.0 0.0 0.00 0.00 0.00 36 1015.5
20260508213402 30 0.0 0.0 0.00 0.00 0.00 35 1015.3
20260508211902 30 0.0 0.0 0.00 0.00 0.00 35 1015.2
20260508210402 30 0.0 0.0 0.00 0.00 0.00 35 1015.0
20260508204902 30 0.0 0.0 0.00 0.00 0.00 34 1014.8
20260508203402 30 0.0 0.0 0.00 0.00 0.00 33 1014.6
20260508201902 30 0.0 0.0 0.00 0.00 0.00 33 1014.4